Theta_e
304 302 301 301 301 301 301 300 299 293 294 296 297 299 300 301 302 301 302 309 310 308 307 306 304 304 303 302 302 302 303 303 303 304 304 305 305 305
303 302 301 301 300 300 300 299 298 297 295 296 297 298 299 301 302 299 300 304 307 305 305 304 303 302 301 301 301 301 301 301 302 302 302 303 304 304
302 301 301 300 299 298 298 298 298 297 294 295 297 298 297 297 299 299 300 299 299 304 304 303 302 302 301 301 300 300 300 300 300 300 301 301 302 302
301 300 299 299 298 298 298 298 297 299 297 294 296 295 296 297 298 297 298 298 296 299 303 302 302 301 300 299 299 298 298 298 298 299 299 299 300 300
301 300 299 298 297 297 298 299 299 300 298 296 295 296 296 296 294 295 295 294 293 297 299 302 302 299 298 297 296 296 297 297 297 296 296 298 298 298
300 300 299 299 299 299 300 300 300 299 298 297 295 294 294 293 293 292 291 291 291 293 295 296 295 295 296 296 295 295 295 295 296 295 295 295 295 296
300 300 300 300 301 302 302 300 300 298 297 295 293 292 292 291 291 291 289 288 288 289 287 287 288 287 287 291 292 293 294 295 295 295 295 295 295 294
300 301 302 300 302 304 303 302 301 298 295 294 292 291 291 290 290 289 287 284 283 287 285 285 286 286 287 287 292 294 295 295 295 294 294 294 293 293
301 301 301 302 301 302 303 302 301 301 299 295 292 291 290 291 289 286 285 284 285 286 284 283 285 285 286 287 292 294 294 294 294 294 294 293 293 292
301 301 300 299 299 298 296 295 296 296 296 294 293 292 291 291 290 289 288 287 286 286 286 282 283 283 284 284 291 293 294 294 294 293 292 292 292 292
297 297 297 296 298 298 294 291 291 292 296 297 296 297 297 295 293 290 287 285 284 284 284 282 281 281 282 282 283 289 291 291 291 291 292 292 292 291
294 295 296 295 298 298 292 291 289 289 290 290 290 292 293 294 295 291 287 283 281 281 282 281 281 281 278 281 281 281 282 288 290 290 290 290 290 284
291 291 293 298 297 296 293 290 290 292 293 290 289 288 286 287 286 287 285 283 281 280 284 281 278 278 277 278 280 281 282 282 281 282 287 288 288 287
290 291 294 296 296 296 295 295 295 293 289 287 285 283 282 282 282 283 283 283 283 283 282 281 273 275 271 273 278 280 282 281 279 279 279 283 285 287
293 294 294 295 295 295 295 295 295 287 283 282 282 282 282 282 282 281 281 281 281 281 282 281 275 278 276 279 277 279 280 279 279 277 278 278 278 278
290 289 290 290 290 288 286 287 285 284 283 282 282 282 281 279 277 278 275 275 273 276 280 280 278 276 272 277 280 279 277 275 280 279 278 278 279 280
284 283 282 282 281 281 282 281 282 282 281 281 279 278 279 278 277 276 274 272 270 271 273 275 274 275 281 281 274 274 275 273 276 276 276 276 277 278
282 280 280 280 280 281 281 281 281 283 279 279 277 276 276 275 274 275 276 275 271 271 270 268 268 271 271 273 281 276 270 270 273 275 273 273 274 275
279 279 278 278 278 278 277 276 276 278 279 275 274 275 278 280 281 277 277 274 270 270 268 266 266 270 265 270 272 281 268 269 269 269 272 269 271 276
279 278 277 277 277 276 275 274 274 275 276 280 277 273 276 278 276 274 275 272 267 266 264 264 268 269 270 269 269 271 281 268 266 270 271 272 276 282
277 276 277 276 276 275 275 274 274 273 276 273 274 272 270 269 273 275 274 278 277 270 269 266 269 280 269 268 266 269 272 280 279 274 273 273 272 271
276 275 276 276 276 277 276 276 272 273 271 269 270 273 274 267 267 268 272 270 269 268 267 269 272 271 266 266 266 264 269 275 278 281 283 282 277 269
274 274 273 273 272 272 270 269 269 269 269 266 266 267 269 271 270 270 269 269 270 270 272 271 273 275 268 266 272 268 266 270 272 274 275 282 283 283
Wind_Speed
6 6 3 3 2 3 3 4 5 5 5 3 3 3 3 4 5 5 5 9 7 6 6 5 4 4 3 1 1 3 4 5 7 8 9 10 10 10
4 6 4 3 4 3 3 3 2 4 3 2 3 3 4 3 5 5 5 6 7 8 6 4 4 4 2 2 2 4 6 7 8 9 10 11 12 11
5 7 6 6 4 4 4 3 3 3 4 1 2 1 2 4 4 3 4 4 2 5 5 6 5 5 3 3 4 6 7 8 9 9 9 10 11 11
6 7 7 5 5 4 3 4 4 3 4 4 2 2 2 3 3 4 2 2 3 5 6 6 6 5 4 4 5 6 8 8 8 7 8 9 8 11
8 8 8 8 6 4 4 4 4 3 3 3 4 2 1 2 2 2 2 2 2 4 6 8 7 5 5 4 4 4 5 6 6 7 8 8 9 12
6 6 6 7 7 7 5 5 4 3 3 3 2 3 2 2 2 3 3 1 2 2 3 4 4 1 3 5 3 4 6 7 7 5 7 9 11 13
5 6 6 7 9 7 5 5 5 4 3 3 1 3 3 2 4 3 2 1 1 1 0 1 1 0 2 3 4 7 8 8 8 9 10 11 11 14
7 5 4 7 7 9 8 11 9 7 5 4 3 3 3 3 2 3 3 2 2 0 2 2 1 2 2 3 7 8 9 11 11 11 13 11 13 13
6 5 4 2 5 5 8 8 8 8 5 5 5 5 4 5 5 4 4 3 3 2 2 2 1 2 2 4 9 10 10 9 11 13 11 12 13 14
6 7 7 6 5 6 6 5 4 4 4 3 4 4 3 5 5 4 5 3 1 1 2 2 1 2 2 3 9 11 13 14 14 14 11 13 15 16
6 5 6 6 10 10 6 6 4 3 5 9 8 8 8 9 7 4 3 2 2 2 0 2 1 2 1 3 3 6 6 7 9 13 17 19 19 16
6 6 8 6 10 11 6 6 5 4 5 4 4 4 4 4 6 4 4 3 2 1 1 2 1 1 4 2 2 1 2 10 17 17 17 13 15 5
5 3 3 9 9 9 7 5 4 5 4 4 3 2 1 2 1 3 4 3 3 2 2 2 1 0 2 3 2 2 3 5 4 6 10 13 17 13
4 3 4 8 7 6 4 4 6 6 3 3 2 2 2 2 2 3 4 4 3 3 4 3 2 3 2 2 5 2 3 4 3 3 3 8 12 15
3 5 5 3 3 1 4 5 6 3 3 2 3 2 2 3 5 4 4 4 3 1 2 1 3 3 3 4 5 5 5 2 4 3 3 4 3 3
6 4 6 7 6 4 3 4 2 3 3 2 2 2 2 2 2 2 2 2 2 2 3 3 3 2 2 4 6 8 3 3 3 5 3 5 5 5
5 3 3 3 2 2 2 1 1 1 2 2 2 2 1 2 2 1 2 1 3 2 2 3 3 4 5 7 3 4 5 3 3 3 2 6 4 6
4 2 1 2 1 1 1 1 1 1 1 2 1 1 2 3 2 1 2 2 2 2 2 2 2 4 4 5 12 5 2 2 3 3 3 4 7 6
2 1 0 0 1 1 1 1 0 1 1 2 2 2 2 2 3 2 2 2 2 2 3 1 1 2 1 4 4 4 3 2 2 3 3 3 5 9
3 1 0 1 1 1 2 2 2 2 2 1 1 2 2 2 2 2 3 3 2 2 3 2 3 3 4 4 3 4 9 2 2 5 5 4 7 18
3 2 2 2 2 1 1 1 2 1 1 0 2 2 3 3 3 3 3 7 7 2 2 3 4 2 2 2 3 4 4 10 8 5 4 4 4 3
3 2 2 1 0 1 0 0 1 1 1 1 2 2 3 3 3 3 3 2 2 3 4 3 2 2 2 2 4 4 4 6 8 15 15 13 3 4
2 2 2 2 2 2 2 2 2 3 2 3 2 3 3 3 4 3 3 3 3 3 2 2 1 2 2 3 6 4 5 5 3 5 5 13 13 14
Wind_Direction
170 163 152 161 151 139 140 141 137 159 210 209 169 183 173 155 180 154 170 176 154 162 164 174 169 187 186 189 279 310 308 298 297 289 291 286 292 300
146 149 142 136 134 124 137 132 117 130 155 137 217 151 176 156 166 151 162 164 163 183 188 198 199 192 176 216 269 283 290 289 291 295 298 301 298 303
147 154 157 147 143 135 132 127 126 125 117 158 91 99 109 157 145 150 167 153 192 208 208 204 204 198 208 246 275 282 286 290 293 299 299 303 306 310
161 148 148 149 139 146 134 144 143 128 125 129 121 140 151 183 161 155 140 193 193 229 212 208 206 208 233 260 279 291 293 298 306 302 301 300 309 306
160 160 160 148 144 149 147 132 114 90 81 125 143 122 131 124 105 91 173 202 204 224 234 219 217 231 246 270 286 296 317 299 297 304 307 312 313 310
138 141 151 157 154 144 141 147 129 121 111 115 115 115 106 98 121 154 198 206 233 239 229 223 226 259 295 268 287 316 298 285 285 284 300 307 309 308
143 163 168 161 154 156 149 143 143 149 140 116 137 106 158 160 197 178 174 117 291 222 270 300 201 201 265 285 294 299 291 282 276 272 287 292 298 307
155 153 162 160 172 171 157 165 156 154 148 154 152 176 186 188 141 152 134 146 244 125 145 269 158 218 237 246 272 289 283 277 276 277 280 288 296 300
151 157 152 151 164 164 162 159 159 176 160 164 165 189 175 181 148 161 174 160 199 197 120 265 162 275 264 285 288 285 274 284 298 292 286 277 286 297
157 160 154 148 144 134 120 115 137 164 186 165 170 170 164 155 153 164 166 147 93 222 130 224 109 259 319 283 287 287 278 288 298 290 286 282 289 297
98 105 124 126 150 143 128 131 145 123 113 108 104 109 114 118 133 102 124 125 221 241 165 151 319 301 308 294 328 331 335 358 335 323 312 302 295 305
86 93 123 133 155 162 152 152 151 152 130 105 84 85 95 124 164 170 159 168 144 9 171 156 187 55 323 264 268 237 288 309 315 318 316 305 310 311
102 100 107 134 130 125 122 133 132 128 145 137 126 138 168 194 141 124 148 141 143 186 145 99 152 296 185 289 275 295 298 296 287 288 296 308 311 301
90 84 87 94 90 91 97 121 148 134 140 151 149 193 190 164 132 120 118 106 81 125 145 133 191 170 197 278 281 293 275 277 284 284 308 312 312 305
94 113 123 127 122 135 183 190 201 150 145 135 181 195 190 160 127 114 90 94 82 155 186 156 171 246 197 253 286 292 298 316 291 282 290 288 289 294
61 61 73 69 65 61 48 32 89 149 168 182 188 149 106 105 121 121 121 125 105 296 244 198 202 163 258 240 267 283 242 264 266 287 279 280 278 265
77 44 38 48 43 21 20 18 52 90 169 162 150 155 139 120 139 129 114 116 150 205 269 281 281 228 253 260 261 245 261 268 255 265 276 285 270 273
56 66 42 32 340 303 280 259 248 234 194 143 130 154 162 172 163 152 145 157 191 231 246 272 335 354 358 300 222 256 270 237 264 260 249 281 293 283
79 66 33 296 306 29 74 137 63 3 74 113 121 170 167 161 187 172 180 177 244 243 253 217 243 174 182 266 280 257 188 255 283 300 264 217 266 282
57 52 95 125 168 139 70 49 358 16 28 27 144 160 172 175 191 194 197 197 216 260 292 277 224 202 191 217 239 267 287 239 203 274 283 270 257 273
21 22 23 23 12 57 116 142 152 245 291 58 293 241 213 176 213 228 219 234 236 195 245 268 242 164 148 60 2 299 282 281 264 241 265 263 275 289
12 2 347 336 320 258 213 117 23 3 312 275 263 243 236 182 194 208 211 199 244 219 226 235 239 148 80 166 247 259 290 296 298 292 285 271 250 273
356 355 345 347 343 349 36 7 303 270 249 246 256 259 225 220 212 191 197 205 224 232 231 227 197 191 223 193 270 270 278 285 284 305 287 287 279 275